TimeEDT,TemperatureF,Dew PointF,Humidity,Sea Level PressureIn,VisibilityMPH,Wind Direction,Wind SpeedMPH,Gust SpeedMPH,PrecipitationIn,Events,Conditions,WindDirDegrees,DateUTC
12:01 AM,33.8,32.0,93,29.89,10.0,Calm,Calm,-,N/A,,Overcast,0,2013-03-19 04:01:00
12:21 AM,33.8,32.0,93,29.89,10.0,Calm,Calm,-,N/A,,Overcast,0,2013-03-19 04:21:00
12:41 AM,32.0,32.0,100,29.88,7.0,WNW,3.5,-,N/A,,Overcast,300,2013-03-19 04:41:00
1:01 AM,32.0,32.0,100,29.87,7.0,Calm,Calm,-,N/A,,Overcast,0,2013-03-19 05:01:00
1:21 AM,32.0,32.0,100,29.87,7.0,Calm,Calm,-,N/A,,Overcast,0,2013-03-19 05:21:00
1:41 AM,32.0,32.0,100,29.86,7.0,Calm,Calm,-,N/A,,Overcast,0,2013-03-19 05:41:00
2:01 AM,32.0,32.0,100,29.85,10.0,Calm,Calm,-,N/A,,Overcast,0,2013-03-19 06:01:00
2:21 AM,32.0,32.0,100,29.85,7.0,Calm,Calm,-,N/A,,Overcast,0,2013-03-19 06:21:00
2:41 AM,32.0,32.0,100,29.84,5.0,Calm,Calm,-,N/A,,Overcast,0,2013-03-19 06:41:00
3:01 AM,32.0,32.0,100,29.83,4.0,Calm,Calm,-,N/A,,Overcast,0,2013-03-19 07:01:00
3:22 AM,32.0,32.0,100,29.83,4.0,Calm,Calm,-,N/A,,Overcast,0,2013-03-19 07:22:00
3:42 AM,32.0,32.0,100,29.81,3.0,Calm,Calm,-,N/A,,Overcast,0,2013-03-19 07:42:00
4:02 AM,32.0,32.0,100,29.81,3.0,Calm,Calm,-,N/A,,Overcast,0,2013-03-19 08:02:00
4:22 AM,32.0,32.0,100,29.80,4.0,Calm,Calm,-,N/A,,Overcast,0,2013-03-19 08:22:00
4:42 AM,32.0,32.0,100,29.79,1.5,Calm,Calm,-,N/A,,Overcast,0,2013-03-19 08:42:00
5:02 AM,32.0,32.0,100,29.80,0.5,Calm,Calm,-,N/A,,Overcast,0,2013-03-19 09:02:00
5:22 AM,32.0,32.0,100,29.80,0.8,Calm,Calm,-,N/A,,Overcast,0,2013-03-19 09:22:00
5:42 AM,32.0,32.0,100,29.81,1.8,Calm,Calm,-,N/A,,Overcast,0,2013-03-19 09:42:00
6:02 AM,32.0,32.0,100,29.81,2.0,Calm,Calm,-,N/A,,Overcast,0,2013-03-19 10:02:00
6:22 AM,32.0,32.0,100,29.82,1.8,Calm,Calm,-,N/A,,Overcast,0,2013-03-19 10:22:00
6:42 AM,32.0,32.0,100,29.84,1.5,Calm,Calm,-,N/A,,Overcast,0,2013-03-19 10:42:00
7:02 AM,32.0,32.0,100,29.85,1.8,Calm,Calm,-,N/A,,Overcast,0,2013-03-19 11:02:00
7:22 AM,32.0,32.0,100,29.84,2.0,Calm,Calm,-,N/A,,Overcast,0,2013-03-19 11:22:00
7:42 AM,32.0,32.0,100,29.85,2.5,Calm,Calm,-,N/A,,Overcast,0,2013-03-19 11:42:00
8:02 AM,32.0,32.0,100,29.85,1.5,Calm,Calm,-,N/A,,Overcast,0,2013-03-19 12:02:00
8:22 AM,32.0,32.0,100,29.85,1.5,SE,3.5,-,N/A,,Overcast,130,2013-03-19 12:22:00
8:42 AM,33.8,33.8,100,29.85,5.0,West,11.5,18.4,N/A,,Mostly Cloudy,270,2013-03-19 12:42:00
9:02 AM,37.4,35.6,93,29.85,10.0,South,5.8,-,N/A,,Scattered Clouds,170,2013-03-19 13:02:00
9:22 AM,41.0,32.0,70,29.86,10.0,WNW,6.9,16.1,N/A,,Scattered Clouds,290,2013-03-19 13:22:00
9:42 AM,42.8,30.2,61,29.85,10.0,WSW,8.1,19.6,N/A,,Mostly Cloudy,240,2013-03-19 13:42:00
10:02 AM,42.8,28.4,57,29.84,10.0,WSW,8.1,-,N/A,,Scattered Clouds,240,2013-03-19 14:02:00
10:22 AM,42.8,28.4,57,29.83,10.0,SW,11.5,-,N/A,,Scattered Clouds,230,2013-03-19 14:22:00
10:42 AM,44.6,28.4,53,29.82,10.0,SW,11.5,19.6,N/A,,Clear,230,2013-03-19 14:42:00
11:02 AM,44.6,28.4,53,29.82,10.0,SSW,5.8,17.3,N/A,,Scattered Clouds,210,2013-03-19 15:02:00
11:23 AM,44.6,28.4,53,29.81,10.0,SSW,5.8,19.6,N/A,,Scattered Clouds,200,2013-03-19 15:23:00
11:43 AM,44.6,26.6,49,29.80,10.0,SSW,12.7,21.9,N/A,,Scattered Clouds,210,2013-03-19 15:43:00
12:03 PM,44.6,26.6,49,29.80,10.0,SSW,10.4,25.3,N/A,,Scattered Clouds,200,2013-03-19 16:03:00
12:23 PM,44.6,26.6,49,29.80,10.0,SW,12.7,26.5,N/A,,Scattered Clouds,230,2013-03-19 16:23:00
12:43 PM,46.4,26.6,46,29.80,10.0,WSW,12.7,33.4,N/A,,Clear,250,2013-03-19 16:43:00
1:03 PM,46.4,26.6,46,29.79,10.0,WSW,17.3,24.2,N/A,,Clear,240,2013-03-19 17:03:00
1:23 PM,48.2,28.4,46,29.80,10.0,West,17.3,33.4,N/A,,Clear,260,2013-03-19 17:23:00
1:43 PM,48.2,28.4,46,29.80,10.0,SW,16.1,32.2,N/A,,Scattered Clouds,230,2013-03-19 17:43:00
2:03 PM,48.2,28.4,46,29.80,10.0,SW,17.3,43.7,N/A,,Clear,220,2013-03-19 18:03:00
2:23 PM,50.0,28.4,43,29.79,10.0,SW,20.7,39.1,N/A,,Scattered Clouds,220,2013-03-19 18:23:00
2:43 PM,48.2,28.4,46,29.80,10.0,WSW,8.1,25.3,N/A,,Scattered Clouds,240,2013-03-19 18:43:00
3:03 PM,48.2,24.8,40,29.79,10.0,WSW,13.8,36.8,N/A,,Clear,240,2013-03-19 19:03:00
3:23 PM,50.0,26.6,40,29.78,10.0,WSW,18.4,32.2,N/A,,Clear,240,2013-03-19 19:23:00
3:43 PM,48.2,24.8,40,29.80,10.0,WSW,16.1,25.3,N/A,,Clear,250,2013-03-19 19:43:00
4:03 PM,48.2,23.0,37,29.80,10.0,West,17.3,28.8,N/A,,Clear,260,2013-03-19 20:03:00
4:23 PM,50.0,21.2,32,29.81,10.0,WSW,21.9,36.8,N/A,,Clear,250,2013-03-19 20:23:00
4:43 PM,50.0,19.4,30,29.80,10.0,SW,17.3,29.9,N/A,,Clear,230,2013-03-19 20:43:00
5:03 PM,50.0,15.8,26,29.81,10.0,WSW,16.1,36.8,N/A,,Clear,240,2013-03-19 21:03:00
5:23 PM,48.2,14.0,25,29.82,10.0,WSW,28.8,42.6,N/A,,Clear,240,2013-03-19 21:23:00
5:43 PM,46.4,14.0,27,29.84,10.0,West,23.0,44.9,N/A,,Clear,280,2013-03-19 21:43:00
6:03 PM,46.4,14.0,27,29.86,10.0,WSW,11.5,29.9,N/A,,Clear,250,2013-03-19 22:03:00
6:23 PM,46.4,14.0,27,29.86,10.0,West,10.4,38.0,N/A,,Clear,260,2013-03-19 22:23:00
6:43 PM,44.6,14.0,29,29.87,10.0,West,11.5,35.7,N/A,,Clear,260,2013-03-19 22:43:00
7:03 PM,44.6,15.8,31,29.87,10.0,West,15.0,28.8,N/A,,Scattered Clouds,260,2013-03-19 23:03:00
7:23 PM,44.6,17.6,34,29.88,10.0,West,15.0,27.6,N/A,,Scattered Clouds,270,2013-03-19 23:23:00
7:43 PM,42.8,15.8,34,29.88,10.0,West,18.4,32.2,N/A,,Clear,280,2013-03-19 23:43:00
8:04 PM,42.8,17.6,36,29.90,10.0,West,13.8,28.8,N/A,,Clear,270,2013-03-20 00:04:00
8:24 PM,42.8,17.6,36,29.90,10.0,WNW,16.1,23.0,N/A,,Scattered Clouds,290,2013-03-20 00:24:00
8:44 PM,41.0,17.6,39,29.92,10.0,West,13.8,23.0,N/A,,Scattered Clouds,280,2013-03-20 00:44:00
9:04 PM,41.0,19.4,42,29.92,10.0,West,11.5,17.3,N/A,,Scattered Clouds,270,2013-03-20 01:04:00
9:24 PM,41.0,19.4,42,29.94,10.0,WNW,10.4,20.7,N/A,,Scattered Clouds,290,2013-03-20 01:24:00
9:44 PM,39.2,19.4,45,29.94,10.0,West,13.8,18.4,N/A,,Scattered Clouds,280,2013-03-20 01:44:00
10:04 PM,37.4,19.4,48,29.95,10.0,West,9.2,23.0,N/A,,Scattered Clouds,270,2013-03-20 02:04:00
10:24 PM,37.4,17.6,45,29.97,10.0,West,18.4,33.4,N/A,,Scattered Clouds,280,2013-03-20 02:24:00
10:44 PM,37.4,17.6,45,29.98,10.0,West,19.6,34.5,N/A,,Scattered Clouds,280,2013-03-20 02:44:00
11:04 PM,37.4,17.6,45,29.98,10.0,West,15.0,31.1,N/A,,Clear,270,2013-03-20 03:04:00
11:24 PM,37.4,17.6,45,29.99,10.0,WNW,11.5,32.2,N/A,,Clear,290,2013-03-20 03:24:00
11:44 PM,37.4,17.6,45,29.99,10.0,West,11.5,27.6,N/A,,Scattered Clouds,270,2013-03-20 03:44:00